Regional Weather Roundup
Issued by NWS Upton, NY

Current Version | Previous Version | Graphics & Text | Print | Product List | Glossary Off
Versions: 1 2 3 4 5 6 7 8 9 10 11 12 13 14 15 16 17 18 19 20 21 22 23 24 25 26

000
ASUS41 KOKX 180305
RWROKX

REGIONAL WEATHER ROUNDUP
NATIONAL WEATHER SERVICE NEW YORK NY
1100 PM EDT THU APR 17 2014

NOTE: "FAIR" INDICATES FEW OR NO CLOUDS BELOW 12,000 FEET WITH NO
SIGNIFICANT WEATHER AND/OR OBSTRUCTIONS TO VISIBILITY.

NYZ071-072-176-178-NJZ106-104-180400-
NEW YORK CITY METRO AREA


CITY           SKY/WX    TMP DP  RH WIND       PRES   REMARKS
CENTRAL PARK   CLEAR     41  29  62 VRB7      30.63F
LAGUARDIA APRT PTCLDY    40  28  62 E9        30.61F WCI  34
KENNEDY INTL   PTCLDY    39  28  64 NE10      30.62F WCI  32
NEWARK/LIBERTY PTCLDY    41  32  70 E6        30.61F
TETERBORO      CLEAR     42  30  62 E3        30.61F
$$

NYZ177-179-078>081-180400-
LONG ISLAND NEW YORK

CITY           SKY/WX    TMP DP  RH WIND       PRES   REMARKS
FARMINGDALE    CLEAR     37  28  70 E8        30.61F WCI  31
ISLIP          PTCLDY    36  27  69 E5        30.60F WCI  32
SHIRLEY        PTCLDY    35  27  72 CALM      30.62F
WESTHAMPTON    PTCLDY    36  27  69 E5        30.64F WCI  32
MONTAUK POINT    N/A     38  27  64 NE13G22   30.65F WCI  30
$$

NYZ052-065-067-180400-
HUDSON VALLEY

CITY           SKY/WX    TMP DP  RH WIND       PRES   REMARKS
WHITE PLAINS   CLEAR     37  29  72 CALM      30.59F
NEWBURGH       CLEAR     41  27  56 VRB6      30.62S
MONTGOMERY     CLEAR     38  24  57 SE3       30.60S
POUGHKEEPSIE   CLEAR     40  27  59 S3        30.62S
ALBANY         PTCLDY    42  21  43 SE8       30.60S
$$

NJZ001-105-106-008-010-013-015-019>022-104-180400-
NEW JERSEY

CITY           SKY/WX    TMP DP  RH WIND       PRES   REMARKS
NEWARK/LIBERTY PTCLDY    41  32  70 E6        30.61F
TETERBORO      CLEAR     42  30  62 E3        30.61F
CALDWELL       PTCLDY    37  31  78 CALM      30.62F
MORRISTOWN     PTCLDY    37  32  81 CALM      30.61F
SOMERVILLE     CLOUDY    36  30  79 CALM      30.60S
LINDEN         FAIR      41  33  72 SE6       30.63F
SUSSEX         CLEAR     37  28  70 CALM      30.60F
ANDOVER          N/A     35  30  82 CALM      30.60F
TRENTON        MOCLDY    37  29  72 NE3       30.60F
MILLVILLE      MOCLDY    36  30  79 NE7       30.58F WCI  30
ATLANTIC CITY  MOCLDY    39  30  70 E12       30.58F WCI  32
WRIGHTSTOWN    MOCLDY    34  32  93 NE6       30.57F WCI  29
TOMS RIVER     CLOUDY    39  28  65 E5        30.60F
BELMAR         CLOUDY    39  28  65 E13       30.59F WCI  32
$$

PAZ047>061-062-071-180400-
EASTERN PENNSYLVANIA

CITY           SKY/WX    TMP DP  RH WIND       PRES   REMARKS
PHILADELPHIA   PTCLDY    38  28  67 E8        30.61F WCI  32
ALLENTOWN      CLEAR     38  28  67 E5        30.59F WCI  34
SCRANTON       CLEAR     38  26  62 VRB5      30.54S WCI  34
$$

CTZ002-004>006-009-010-012-RIZ004-006-007-MAZ004-011-015-180400-
SOUTHERN NEW ENGLAND
 IN CT

CITY           SKY/WX    TMP DP  RH WIND       PRES   REMARKS
BRADLEY INTL   PTCLDY    35  24  64 NE7       30.65F WCI  29
HARTFORD       FAIR      36  24  62 E6        30.65F WCI  31
DANBURY        CLEAR     36  29  75 CALM      30.62F
WTRBRY/OXFORD  CLEAR     34  25  69 E3        30.63F
BRIDGEPORT     CLEAR     41  30  65 E16       30.63F
MERIDEN        CLEAR     36  25  64 E5        30.64F WCI  32
NEW HAVEN      CLEAR     38  27  64 NE6       30.63F WCI  33
CHESTER        FAIR      36  27  69 NE9       30.63F WCI  29
GROTON         CLEAR     35  26  69 NE12      30.65F WCI  27
WILLIMANTIC    CLEAR     34  25  69 NE10      30.66F WCI  26

 IN RI

CITY           SKY/WX    TMP DP  RH WIND       PRES   REMARKS
PROVIDENCE     PTCLDY    33  24  69 NE10      30.68F WCI  25
BLOCK ISLAND   CLEAR     36  27  69 NE15G25   30.63F WCI  26
WESTERLY       CLEAR     34  25  69 NE8       30.66F WCI  27

 IN MA

CITY           SKY/WX    TMP DP  RH WIND       PRES   REMARKS
BOSTON         PTCLDY    34  26  72 NE7       30.70F WCI  28
WORCESTER      CLEAR     30  22  72 E6        30.64F WCI  24
WESTFIELD      CLEAR     36  24  62 E5        30.66F WCI  32
PROVINCETOWN   CLEAR     36  25  64 MISG      30.69F
NANTUCKET      PTCLDY    37  26  64 E10       30.64F WCI  30
$$

ANZ330-335-338-340-345-350-353-355-180400-
COASTAL MARINE OBSERVATIONS


STATION/POSITION TIME  SKY/WX   TEMP    WIND        PRES    VSBY  WAVE
                                AIR SEA DIR/SP/G                  HT/PER
                 (UTC)          (F)     (DEG/KT/KT) (MB)    (MI)  (FT/S)
NY HARB ENTRANCE 0300            40 43   40/ 19/ 25 1035.7
4S FIRE IS       0200               44                N/A           7/ 7
23SW MTP         0300            38 42   70/ 21/ 25 1036.2          8/ 7
HUDSON CANYON    0200            40 45   60/ 21/ 25 1034.8          9/ 8
EXECUTION ROCKS  0300            40 42  100/  8/ 10   N/A
WESTERN LI SOUND 0300            41      90/ 12/ 14   N/A           1/ 3
CENTRAL LI SOUND 0200            39 42   90/ 17/ 19   N/A           4/ 4
EASTERN LI SOUND NOT AVBL
ROBBINS REEF     0300            41      90/  9/ 12   N/A
$$


>>>>>>>>>>>>>>>>>>>>>>>>>>>> KEY <<<<<<<<<<<<<<<<<<<<<<<<<<<
>                                                          <
>     SKY/WX - SKY CONDITION/PRESENT WEATHER               <
>     TMP    - TEMPERATURE IN FAHRENHEIT                   <
>     DP     - DEWPOINT IN FAHRENHEIT                      <
>     RH     - RELATIVE HUMIDITY IN PERCENT                <
>     WIND   - DIRECTION AND SPEED IN MPH                  <
>     PRES   - MEAN SEA LEVEL PRESSURE IN INCHES OF HG     <
>     WCI    - WIND CHILL INDEX                            <
>     VSB    - VISIBILITY IN MILES                         <
>     HX     - HEAT INDEX                                  <
>     TC     - TEMPERATURE IN CELSIUS                      <
>     VRB    - VARIABLE WIND DIRECTION                     <
>                                                          <
>>>>>>>>>>>>>>>>>>>>>>>>>>>> KEY <<<<<<<<<<<<<<<<<<<<<<<<<<<





USA.gov is the U.S. government's official web portal to all federal, state and local government web resources and services.